RH
67 67 67 68 68 67 73 74 74 73 73 73 73 72 70 70 71 71 71 70 72 73 73 73 72 72 71 91 80 45 51 52 62 73 71 64 66 56 61 59 52 60 51 48 43 41 42
66 67 68 71 71 74 74 73 71 69 70 70 69 70 71 70 70 69 69 70 73 73 72 73 71 74 79 96 44 50 58 69 71 76 77 60 56 52 51 49 50 46 44 42 41 42 45
66 70 71 72 72 67 68 67 66 66 66 68 70 66 72 69 69 69 70 74 73 72 75 79 70 67 79 82 53 55 51 73 83 69 65 54 54 47 52 52 44 46 47 42 44 43 45
66 70 71 69 69 66 67 66 66 68 69 66 68 67 67 69 70 70 74 75 76 76 76 76 72 72 94 61 65 64 60 49 73 69 60 53 43 49 46 45 46 49 51 62 39 38 41
71 71 70 67 67 66 66 66 63 68 66 64 66 69 69 69 71 77 80 77 72 72 78 75 80 76 89 57 50 40 53 53 80 80 73 46 55 59 51 61 67 63 52 53 49 36 37
70 70 67 67 66 66 65 65 63 65 66 67 68 69 70 70 75 79 74 70 63 66 74 73 68 85 67 63 50 43 42 52 80 78 67 66 64 65 67 64 61 48 65 53 47 39 42
66 65 65 66 65 66 63 68 65 66 67 68 69 70 71 71 75 71 64 74 79 65 74 83 74 79 62 51 49 48 44 67 53 68 92 64 79 83 60 53 47 43 47 46 47 36 38
68 64 64 64 64 66 64 63 65 68 69 69 70 72 72 72 74 66 63 84 75 78 92 66 68 71 64 66 67 51 46 58 70 88 72 76 85 62 55 55 55 53 55 50 43 38 44
65 63 64 65 64 65 63 65 68 69 70 71 71 76 75 74 69 80 85 79 71 84 88 75 65 68 62 64 65 61 51 55 67 83 76 82 67 51 55 53 61 62 64 57 53 43 41
64 62 62 64 63 64 65 67 68 70 71 75 74 74 76 76 72 92 78 66 77 84 87 47 66 55 38 56 65 39 33 59 61 68 70 77 59 61 64 65 59 68 47 49 54 58 62
63 63 62 64 66 65 67 68 70 70 74 79 77 75 74 76 93 90 68 71 85 88 45 59 57 40 40 48 49 41 38 51 66 78 81 83 83 81 84 68 55 64 51 51 54 61 62
60 62 63 64 67 69 69 70 70 71 75 78 77 75 73 80 89 78 73 88 88 69 64 72 58 52 52 46 47 47 40 47 57 74 71 71 49 59 73 61 56 64 76 72 68 62 94
65 61 62 63 68 69 70 70 70 71 72 77 77 74 75 71 73 66 84 88 56 71 60 74 68 56 60 56 50 55 52 92 94 93 75 64 56 57 46 63 62 67 92 94 94 94 89
63 66 68 68 69 70 70 70 71 72 72 79 77 74 70 66 69 82 81 63 63 69 86 61 59 59 65 59 61 65 63 64 86 92 97 96 68 59 36 71 93 80 96 96 93 90 77
63 66 69 71 72 70 70 71 71 71 77 78 76 86 72 55 66 78 67 91 96 81 66 70 65 75 72 58 75 70 74 75 87 88 88 98 75 44 44 31 35 72 92 97 97 93 90
65 70 72 70 70 71 71 71 71 71 76 74 94 84 65 63 73 55 75 77 78 73 62 67 79 74 91 79 86 84 82 60 61 82 76 87 96 59 43 42 48 45 57 87 89 96 92
66 67 67 68 71 71 71 71 71 71 72 75 90 56 53 66 63 73 91 85 73 61 61 71 74 79 85 94 89 91 82 63 71 75 82 82 96 71 63 52 57 77 93 94 97 95 94
66 66 67 69 70 71 71 71 71 70 72 86 93 41 61 58 67 95 87 74 63 72 63 66 69 74 82 91 96 94 91 75 70 79 88 86 98 99 74 48 76 76 91 97 96 89 96
66 66 68 68 70 69 71 71 70 69 72 96 96 97 74 59 82 92 83 81 74 68 65 67 75 66 72 83 96 88 89 68 65 75 88 84 93 97 64 43 70 86 79 87 92 97 96
67 67 67 68 71 74 75 74 72 72 71 90 94 88 86 89 88 91 96 89 81 64 69 68 71 74 82 84 78 94 77 68 68 65 64 82 99 97 93 72 76 94 80 71 88 97 94
67 67 68 68 70 69 70 71 69 70 72 84 97 95 88 97 91 91 93 93 87 80 80 78 84 78 96 95 87 87 77 71 66 63 73 79 100 92 84 86 90 90 85 80 86 93 94
66 64 64 66 69 69 68 68 67 67 70 94 96 96 96 97 92 98 86 92 83 77 93 85 91 79 83 96 87 96 89 81 82 84 88 95 92 92 96 89 84 94 89 89 90 89 93
64 64 64 66 69 63 62 66 68 71 75 97 94 89 92 85 93 96 91 78 80 78 83 76 91 98 95 81 86 78 80 84 86 95 95 97 97 97 97 85 90 90 97 89 90 91 94
65 60 62 60 61 62 64 64 68 69 72 92 92 96 100 97 99 84 74 74 82 83 96 93 85 97 80 69 83 85 90 98 94 95 83 97 98 98 97 95 100 96 93 92 93 94 93
64 65 70 70 70 65 64 60 57 62 65 82 82 95 100 98 96 82 86 97 91 95 96 92 83 77 72 95 92 92 82 82 96 76 79 80 98 98 97 97 93 93 92 96 98 98 97
67 66 66 66 64 63 64 62 62 55 63 81 88 91 100 99 95 94 96 91 98 94 90 80 73 75 80 98 97 96 97 92 91 76 54 78 77 91 96 98 100 96 85 94 97 99 93
68 67 67 66 66 65 63 63 61 59 64 78 95 91 99 98 96 95 96 97 94 94 98 90 84 93 82 97 97 99 98 95 98 99 95 86 91 95 98 100 100 95 93 95 100 99 92
65 65 65 65 63 63 62 60 58 58 68 75 94 84 99 97 96 94 92 96 92 94 98 88 88 89 94 94 98 99 98 99 95 98 100 99 100 100 95 97 99 82 77 89 96 95 96
65 64 63 63 63 61 60 58 57 70 62 73 95 86 77 95 98 88 76 68 95 98 98 98 96 98 98 98 96 95 94 91 94 100 82 96 99 100 96 97 99 98 99 97 97 98 94
Wind_Speed
11 12 13 14 16 17 17 17 18 19 20 21 22 24 25 27 28 29 29 30 27 24 21 18 16 10 3 5 14 8 17 10 12 13 17 12 7 9 11 7 4 12 8 9 15 18 14
12 13 15 15 15 15 16 17 18 20 21 22 24 25 25 27 28 30 31 32 29 25 23 19 12 5 3 7 4 6 12 4 8 11 12 10 11 8 7 6 15 4 16 20 14 14 7
11 14 14 14 15 16 18 19 20 21 22 23 23 25 25 27 28 31 32 31 29 25 25 15 8 6 7 19 8 12 8 5 2 12 9 9 5 11 7 3 7 5 14 14 8 6 8
12 12 13 14 16 17 18 19 20 22 23 24 24 25 27 28 29 31 32 32 28 24 9 6 9 5 9 6 6 8 4 5 3 4 1 7 5 4 5 3 5 3 3 4 7 16 7
11 12 13 15 17 18 18 20 21 22 22 23 24 26 27 29 30 30 30 29 23 6 3 11 5 4 11 8 5 8 4 5 2 1 2 2 5 7 4 4 6 5 16 16 5 7 7
11 12 14 16 17 18 19 21 21 21 23 24 25 26 27 29 29 30 29 24 8 4 4 2 6 2 2 8 6 11 4 4 3 3 1 4 5 5 7 9 23 19 15 5 9 8 10
11 14 15 15 17 19 19 20 22 23 23 24 26 27 28 28 28 22 19 6 10 7 9 2 11 5 16 9 9 4 5 1 2 2 8 4 7 19 18 23 23 13 9 18 2 5 6
13 13 15 17 18 18 20 20 21 23 24 25 27 27 27 26 24 13 11 8 3 6 11 5 9 9 10 4 6 9 3 4 6 10 2 5 19 8 5 9 16 20 22 32 10 4 3
12 13 15 16 16 17 19 20 21 22 24 26 27 28 26 24 11 5 3 7 4 4 5 8 4 4 5 3 4 9 7 4 4 4 6 16 10 3 3 15 13 18 23 21 18 4 8
12 13 14 15 17 18 18 20 21 23 25 26 27 26 26 23 5 5 3 8 5 3 4 4 4 6 12 4 2 6 12 4 3 6 8 13 13 20 21 21 8 23 13 17 17 8 17
12 13 13 13 16 17 19 21 22 24 24 24 27 26 21 11 3 4 9 11 7 2 5 7 5 5 11 8 9 11 10 7 5 7 3 6 13 17 13 7 7 24 9 14 15 13 12
11 12 13 14 15 17 19 21 23 24 24 24 25 25 17 3 2 6 11 8 1 3 8 8 5 10 11 8 6 7 8 7 4 4 4 3 10 6 13 15 11 17 13 12 11 12 10
10 11 12 14 15 16 19 21 22 23 24 25 26 22 8 2 8 14 7 2 5 3 10 8 9 14 11 10 6 7 10 7 4 7 8 8 5 2 15 17 13 8 4 4 6 6 7
10 12 13 13 15 17 18 20 22 24 26 26 25 12 6 2 8 7 3 6 7 4 3 6 8 14 4 10 4 8 9 6 1 2 4 4 8 9 9 2 9 17 6 4 5 6 2
10 11 11 13 15 16 18 20 22 24 25 25 17 4 4 10 11 4 6 7 1 2 6 7 12 4 3 8 4 8 6 4 3 1 2 3 6 13 16 13 5 7 7 9 7 13 11
9 10 12 13 15 16 18 20 22 24 24 22 3 4 5 14 9 7 7 3 1 1 5 3 3 3 7 6 5 6 4 5 3 4 3 5 9 7 10 8 1 9 5 7 4 5 8
9 11 11 13 14 16 18 20 22 23 26 16 4 5 5 12 5 7 4 3 3 4 5 3 4 6 5 6 4 4 7 9 5 6 4 5 5 7 6 3 10 9 1 3 1 3 3
9 10 11 12 14 16 17 20 21 23 25 8 3 4 5 6 7 3 2 4 6 4 2 5 4 4 3 4 6 4 6 5 7 3 7 3 2 4 10 16 7 6 5 6 1 4 4
8 10 12 14 15 16 17 18 19 21 19 2 3 3 5 5 4 3 5 5 3 3 5 3 4 3 2 5 7 5 5 5 8 9 5 3 3 4 8 5 3 4 8 7 7 6 3
9 10 12 13 13 15 17 19 20 21 20 4 3 4 5 5 1 2 4 4 4 4 5 3 7 4 5 8 10 8 15 9 6 13 20 6 1 4 8 8 4 6 14 16 5 3 4
8 10 12 13 16 17 17 17 18 20 19 4 4 1 3 5 3 3 2 3 5 5 3 3 3 5 7 7 15 8 6 18 6 14 3 1 5 7 10 4 15 10 13 17 15 13 4
9 9 12 13 13 15 15 16 19 20 14 5 3 3 3 4 3 2 2 4 3 5 4 6 4 12 11 9 13 24 16 15 13 4 1 3 8 4 4 18 22 17 18 11 16 13 10
9 9 10 10 10 12 13 14 16 18 11 2 2 2 0 4 1 2 4 5 8 12 7 12 9 13 7 9 10 24 18 20 17 15 14 6 3 2 2 17 9 12 18 12 12 16 7
7 9 10 9 8 10 12 13 13 14 11 2 3 3 2 5 1 5 9 13 17 17 12 6 7 5 5 17 16 8 3 3 8 12 10 5 5 3 3 4 5 5 9 12 17 16 15
8 9 11 12 9 9 11 13 14 10 8 2 3 3 2 4 6 10 15 10 13 7 6 4 5 6 14 7 5 9 5 3 7 9 14 11 2 4 4 5 5 3 9 6 7 7 12
9 10 10 10 11 13 13 13 12 14 10 1 2 2 2 2 11 15 6 13 6 9 6 5 7 9 7 3 3 2 3 6 7 13 16 13 12 6 4 5 3 3 15 7 4 1 11
10 10 11 12 13 14 14 14 14 13 10 2 3 7 3 7 7 10 7 8 7 5 4 5 11 8 5 4 4 3 3 1 5 7 12 11 9 8 6 4 1 10 13 4 2 4 9
10 11 11 12 13 13 13 13 11 11 10 4 3 7 3 5 6 10 8 6 5 5 3 7 7 5 5 7 4 3 5 4 5 4 5 4 5 5 4 3 1 15 4 5 4 4 5
11 11 12 12 12 12 11 10 10 13 11 5 4 5 7 7 4 2 5 9 4 5 5 4 3 4 3 4 4 5 5 5 4 3 5 5 1 1 2 1 1 3 4 4 4 3 5
Wind_Direction
18 10 9 6 4 2 357 354 351 348 345 343 342 341 339 337 334 330 328 326 323 317 311 304 300 293 285 242 256 303 319 315 151 154 180 170 166 185 189 195 219 242 232 225 229 250 267
16 9 5 3 358 353 348 349 347 345 342 341 341 339 337 335 332 328 326 323 319 316 310 303 288 260 213 257 265 351 336 257 165 170 189 167 195 184 203 212 202 224 220 242 245 249 236
15 9 358 352 351 354 354 352 349 345 343 342 341 337 334 334 331 327 324 319 314 315 312 295 230 192 241 253 313 318 321 320 218 179 173 208 197 168 175 286 220 247 273 271 223 210 236
12 5 358 350 353 356 356 353 350 345 342 342 339 338 337 333 331 328 323 313 314 314 321 107 155 170 253 265 284 298 286 287 234 211 155 178 137 213 183 259 346 255 242 234 200 211 214
6 360 357 355 356 356 354 352 349 347 341 341 339 339 338 333 332 329 321 311 314 316 80 122 102 138 268 294 326 310 192 246 161 244 237 244 168 204 167 153 333 224 250 238 272 186 179
360 356 2 359 357 356 353 352 348 344 343 342 341 340 338 334 334 331 325 320 329 70 93 164 90 306 305 317 303 312 270 240 191 140 258 191 229 220 190 182 223 222 238 250 222 201 201
1 3 359 357 356 355 352 350 348 344 343 344 343 341 338 336 336 342 341 16 14 352 46 325 271 242 279 303 285 283 310 35 106 146 201 212 219 222 223 230 254 286 231 244 180 216 218
9 4 2 356 357 354 351 349 348 346 347 347 343 340 338 337 337 359 23 61 76 241 305 295 254 239 257 246 306 322 332 196 170 220 206 281 249 254 254 245 257 260 264 260 259 186 224
7 5 359 0 352 349 349 349 349 350 347 345 344 339 340 340 336 33 53 91 245 311 272 294 248 269 325 162 332 316 344 317 229 239 220 231 234 48 265 250 243 246 247 266 266 260 254
7 4 1 354 355 353 348 349 351 348 345 342 345 347 343 340 40 337 340 340 302 241 17 323 18 15 339 256 254 35 350 259 298 254 229 251 261 262 269 265 217 261 244 258 260 230 253
9 3 0 352 352 349 347 346 347 347 345 342 343 345 347 17 308 358 289 318 298 179 340 359 5 299 331 37 314 344 326 339 337 310 328 274 333 324 314 268 239 259 204 231 242 230 242
5 1 358 351 349 350 349 346 347 346 345 342 342 340 344 12 343 258 301 308 61 55 255 348 357 341 351 1 347 307 355 353 316 289 264 277 270 264 257 305 302 297 308 304 287 239 227
360 356 351 356 354 352 351 349 348 345 344 341 337 335 341 332 323 317 307 43 28 104 359 356 328 334 322 348 342 5 344 11 13 344 349 314 303 37 37 349 310 4 202 235 219 209 236
360 359 359 355 355 355 353 352 348 347 345 339 332 331 312 251 309 319 32 47 62 5 345 326 326 323 349 3 334 336 344 330 20 352 299 333 325 7 334 159 312 306 252 260 255 204 180
4 1 357 0 5 360 357 353 353 349 344 341 335 337 353 332 347 8 59 52 89 342 332 300 308 323 310 355 301 352 308 261 199 164 128 310 263 324 306 316 265 314 276 320 285 238 256
4 14 19 9 6 2 359 356 354 350 345 344 1 348 338 332 340 42 61 97 6 3 315 291 296 347 311 331 326 347 291 269 323 197 181 269 282 270 310 314 20 330 277 336 328 301 251
15 14 17 13 10 6 2 358 355 351 346 348 34 30 290 335 41 43 75 309 308 301 349 294 284 287 279 315 316 268 276 298 7 334 312 272 226 294 325 327 325 329 45 283 319 278 290
26 21 18 16 14 9 5 1 357 354 351 34 27 10 309 359 49 32 12 306 290 295 304 287 290 245 271 308 281 261 247 233 356 346 315 254 300 268 257 288 143 108 346 305 225 284 245
23 24 22 20 15 11 7 360 357 356 3 14 23 289 320 51 58 343 319 303 273 308 303 304 280 254 316 300 300 244 271 281 339 351 308 313 264 296 312 342 42 22 25 332 278 244 35
33 28 24 19 13 11 9 4 2 359 1 77 49 357 337 38 29 93 337 276 283 277 268 271 273 276 333 302 269 277 288 292 351 299 293 305 320 205 235 252 302 21 25 359 336 315 79
34 28 22 24 23 11 1 358 357 356 1 86 39 316 157 323 345 308 308 290 294 319 274 307 289 278 339 303 307 259 276 303 300 291 287 84 248 231 259 261 84 55 45 35 43 1 36
32 22 14 15 23 17 9 7 8 6 6 71 83 43 315 268 274 275 310 258 276 295 271 287 234 314 307 274 271 294 302 296 286 309 29 279 279 264 278 90 90 61 31 52 32 5 56
31 20 11 11 19 13 10 11 12 16 20 27 307 300 235 275 279 77 243 254 285 297 262 249 306 311 298 282 290 275 275 271 262 296 304 260 275 258 242 144 144 37 6 69 67 29 5
24 15 19 17 17 15 12 8 11 15 25 340 358 301 274 276 200 245 284 287 290 284 268 289 310 274 280 312 295 289 23 352 88 48 16 328 312 261 96 177 45 105 36 73 81 37 21
23 24 23 27 14 1 355 347 354 356 354 52 340 314 302 288 346 337 327 316 307 348 332 289 347 340 309 305 323 340 350 41 100 64 42 28 332 17 84 52 119 69 26 348 5 44 19
20 14 4 355 347 349 347 341 339 336 347 30 1 290 282 304 9 314 333 4 338 346 345 312 336 322 335 19 329 313 345 6 339 341 22 24 31 73 12 97 152 14 333 313 302 155 10
22 13 4 360 357 352 348 349 348 342 13 59 74 19 276 91 3 354 25 344 345 334 309 318 337 329 20 4 21 15 4 337 29 22 344 356 2 39 5 86 109 343 319 321 175 338 355
22 11 5 5 0 357 355 354 349 7 42 58 84 26 66 99 49 24 20 359 335 10 347 296 353 350 346 24 38 346 37 43 78 20 10 35 358 17 334 61 13 348 18 66 274 318 339
23 12 8 5 3 359 359 360 11 52 44 66 62 32 52 81 100 190 80 31 1 294 295 315 227 346 301 358 13 45 35 22 4 42 7 32 72 274 119 261 271 328 66 12 354 323 340